Gage, OK

4:59 PM CST on January 21, 2017 (GMT -0600)
Gage

Weather History for KGAG - October, 2013

Change the Weather History Date:

Tuesday, October 29, 2013

  Actual Average Record
Temperature  
Mean Temperature 58 °F -  
Max Temperature 66 °F 66 °F 93 °F (1950)
Min Temperature 51 °F 39 °F 19 °F (1980)
Degree Days  
Heating Degree Days 6    
Growing Degree Days 8 (Base 50)    
Moisture  
Dew Point 54 °F    
Average Humidity 83    
Maximum Humidity 94    
Minimum Humidity 72    
Precipitation  
Precipitation 0.00 in - - ()
Sea Level Pressure  
Sea Level Pressure 29.92 in    
Wind  
Wind Speed 14 mph (SW)    
Max Wind Speed 25 mph    
Max Gust Speed 36 mph    
Visibility 9 miles    
Events      
Averages and records for this station are not official NWS values.
T = Trace of Precipitation, MM = Missing Value Source: NWS Daily Summary

Daily Weather History Graph

Daily Weather History Graph

Search for Another Location

Airport or City:

Trip Planner

Search our weather history database for the weather conditions in past years. The results will help you decide how hot, cold, wet, or windy it might be!

Date:

Astronomy

Oct. 29, 2013 Rise Set
Actual Time 7:59 AM CDT 6:45 PM CDT
Civil Twilight 7:32 AM CDT 7:12 PM CDT
Nautical Twilight 7:02 AM CDT 7:42 PM CDT
Astronomical Twilight 6:32 AM CDT 8:12 PM CDT
Moon 2:59 AM CDT (10/29) 3:52 PM CDT (10/29)
Length of Visible Light 11h 39m
Length of Day
10h 46m
Waning Crescent, 25% of the Moon is Illuminated
Oct 29
Waning Crescent
Nov 3
New
Nov 9
First Quarter
Nov 17
Full
Nov 25
Last Quarter

Hourly Weather History & Observations

Time (CDT) Temp. Dew Point Humidity Pressure Visibility Wind Dir Wind Speed Gust Speed Precip Events Conditions
12:17 AM 64.4 °F 62.6 °F 94% 29.91 in 9.0 mi South 23.0 mph 32.2 mph N/A   Overcast
12:53 AM 66.0 °F 63.0 °F 90% 29.86 in 10.0 mi South 25.3 mph 32.2 mph N/A   Overcast
1:53 AM 66.0 °F 63.0 °F 90% 29.84 in 10.0 mi South 21.9 mph 35.7 mph N/A   Overcast
2:03 AM 66.2 °F 62.6 °F 88% 29.90 in 10.0 mi South 23.0 mph 31.1 mph N/A   Overcast
2:53 AM 66.0 °F 62.1 °F 87% 29.84 in 10.0 mi South 24.2 mph 33.4 mph N/A   Mostly Cloudy
3:09 AM 66.2 °F 62.6 °F 88% 29.90 in 10.0 mi South 24.2 mph 32.2 mph N/A   Mostly Cloudy
3:53 AM 66.0 °F 62.1 °F 87% 29.88 in 10.0 mi South 13.8 mph 20.7 mph N/A   Overcast
4:38 AM 64.4 °F 62.6 °F 94% 29.93 in 10.0 mi South 15.0 mph - N/A   Overcast
4:53 AM 64.9 °F 62.1 °F 90% 29.87 in 10.0 mi South 17.3 mph 26.5 mph N/A   Scattered Clouds
5:53 AM 61.0 °F 59.0 °F 93% 29.90 in 10.0 mi West 16.1 mph - N/A   Mostly Cloudy
6:53 AM 52.0 °F 46.9 °F 83% 29.94 in 10.0 mi WSW 6.9 mph - N/A   Scattered Clouds
7:01 AM 51.8 °F 46.4 °F 82% 29.97 in 10.0 mi WSW 8.1 mph - N/A   Mostly Cloudy
7:53 AM 52.0 °F 45.0 °F 77% 29.93 in 10.0 mi West 8.1 mph - N/A   Overcast
8:53 AM 53.1 °F 46.0 °F 77% 29.95 in 9.0 mi West 8.1 mph - N/A   Overcast
9:28 AM 51.8 °F 44.6 °F 76% 29.99 in 9.0 mi WNW 8.1 mph - N/A   Overcast
9:53 AM 53.1 °F 45.0 °F 74% 29.97 in 9.0 mi West 5.8 mph - N/A   Overcast
10:53 AM 53.1 °F 46.0 °F 77% 29.97 in 8.0 mi West 8.1 mph - N/A   Overcast
11:53 AM 55.0 °F 46.9 °F 74% 29.96 in 8.0 mi West 8.1 mph - N/A   Overcast
12:53 PM 55.9 °F 48.9 °F 77% 29.96 in 7.0 mi SW 6.9 mph - N/A   Overcast
1:53 PM 57.9 °F 50.0 °F 75% 29.93 in 8.0 mi West 8.1 mph - N/A   Overcast
2:14 PM 57.2 °F 50.0 °F 77% 29.97 in 8.0 mi West 6.9 mph - N/A   Overcast
2:53 PM 57.9 °F 51.1 °F 78% 29.91 in 7.0 mi West 4.6 mph - N/A   Overcast
3:53 PM 59.0 °F 52.0 °F 78% 29.91 in 7.0 mi Calm Calm - N/A   Overcast
4:21 PM 60.8 °F 51.8 °F 72% 29.94 in 8.0 mi Calm Calm - N/A   Overcast
4:53 PM 60.1 °F 52.0 °F 75% 29.90 in 8.0 mi Calm Calm - N/A   Overcast
5:24 PM 60.8 °F 53.6 °F 77% 29.95 in 8.0 mi Calm Calm - N/A   Scattered Clouds
5:53 PM 60.1 °F 52.0 °F 75% 29.90 in 8.0 mi Calm Calm - N/A   Clear
6:53 PM 55.9 °F 52.0 °F 87% 29.92 in 9.0 mi Calm Calm - N/A   Clear
7:53 PM 57.0 °F 52.0 °F 83% 29.93 in 8.0 mi East 4.6 mph - N/A   Clear
8:53 PM 57.0 °F 53.1 °F 87% 29.93 in 8.0 mi Variable 3.5 mph - N/A   Clear
9:53 PM 57.0 °F 54.0 °F 89% 29.93 in 7.0 mi ENE 5.8 mph - N/A   Clear
10:53 PM 55.0 °F 53.1 °F 93% 29.93 in 7.0 mi NNE 4.6 mph - N/A   Clear
11:53 PM 55.0 °F 53.1 °F 93% 29.90 in 9.0 mi East 3.5 mph - N/A   Clear